Weather History for London-Corbin, KY

Change the Weather History Date:

Monday, September 1, 2014

  Actual Average Record
Temperature  
Mean Temperature 81 °F 73 °F  
Max Temperature 91 °F 84 °F 95 °F (1957)
Min Temperature 71 °F 62 °F 48 °F (1963)
Degree Days  
Heating Degree Days 0 0  
Month to date heating degree days 0 0  
Since 1 July heating degree days 0 1  
Cooling Degree Days 16 8  
Month to date cooling degree days 16 8  
Growing Degree Days 30 (Base 50)    
Moisture  
Dew Point 67 °F    
Average Humidity 67    
Maximum Humidity 90    
Minimum Humidity 44    
Precipitation  
Precipitation 0.00 in 0.10 in 1.41 in (1982)
Month to date precipitation 0.00 0.10  
Sea Level Pressure  
Sea Level Pressure 30.05 in    
Wind  
Wind Speed 7 mph (SW)    
Max Wind Speed 20 mph    
Max Gust Speed 24 mph    
Visibility 10 miles    
Events      
T = Trace of Precipitation, MM = Missing Value Source: NWS Daily Summary

Daily Weather History Graph

Daily Weather History Graph

Search for Another Location

Airport:

Trip Planner

Search our weather history database for the weather conditions in past years. The results will help you decide how hot, cold, wet, or windy it might be!

Date:

Astronomy

Sep. 01, 2014 Rise Set
Actual Time 7:07 AM EDT 8:04 PM EDT
Civil Twilight 6:40 AM EDT 8:31 PM EDT
Nautical Twilight 6:08 AM EDT 9:02 PM EDT
Astronomical Twilight 5:36 AM EDT 9:35 PM EDT
Moon 1:42 PM EDT (9/1) No Moon Set
Length of Visible Light 13h 51m
Length of Day
12h 57m
Waxing Crescent, 42% of the Moon is Illuminated
Sep 1
Waxing Crescent
Sep 2
First Quarter
Sep 8
Full
Sep 15
Last Quarter
Sep 24
New

Hourly Weather History & Observations

Time (EDT) Temp. Heat Index Dew Point Humidity Pressure Visibility Wind Dir Wind Speed Gust Speed Precip Events Conditions
12:53 AM 73.0 °F - 68.0 °F 84% 30.05 in 10.0 mi SSW 4.6 mph - N/A   Mostly Cloudy
1:53 AM 73.0 °F - 68.0 °F 84% 30.05 in 10.0 mi SSW 3.5 mph - N/A   Overcast
2:53 AM 73.0 °F - 68.0 °F 84% 30.06 in 10.0 mi SSW 3.5 mph - N/A   Scattered Clouds
3:53 AM 72.0 °F - 68.0 °F 87% 30.06 in 10.0 mi SSW 4.6 mph - N/A   Clear
4:53 AM 71.1 °F - 66.9 °F 87% 30.07 in 10.0 mi SSW 4.6 mph - N/A   Partly Cloudy
5:13 AM 72.0 °F - 66.9 °F 84% 30.11 in 10.0 mi SSW 5.8 mph - N/A   Mostly Cloudy
5:53 AM 72.0 °F - 66.9 °F 84% 30.08 in 10.0 mi SSW 4.6 mph - N/A   Overcast
6:53 AM 72.0 °F - 66.9 °F 84% 30.08 in 10.0 mi SSW 5.8 mph - N/A   Overcast
7:53 AM 73.0 °F - 66.9 °F 81% 30.09 in 10.0 mi South 5.8 mph - N/A   Overcast
8:49 AM 75.2 °F - 68.0 °F 78% 30.12 in 10.0 mi SSW 6.9 mph - N/A   Scattered Clouds
8:53 AM 75.0 °F - 68.0 °F 79% 30.09 in 10.0 mi SSW 5.8 mph - N/A   Partly Cloudy
9:53 AM 79.0 °F - 69.1 °F 72% 30.08 in 10.0 mi WSW 12.7 mph - N/A   Clear
11:53 AM 82.0 °F 85.5 °F 69.1 °F 65% 30.09 in 10.0 mi SW 5.8 mph - N/A   Mostly Cloudy
12:53 PM 84.9 °F 88.8 °F 69.1 °F 59% 30.06 in 10.0 mi WSW 11.5 mph - N/A   Partly Cloudy
1:53 PM 86.0 °F 90.1 °F 69.1 °F 57% 30.05 in 10.0 mi SSW 10.4 mph 19.6 mph N/A   Clear
2:53 PM 87.1 °F 89.2 °F 66.0 °F 49% 30.02 in 10.0 mi SW 13.8 mph 19.6 mph N/A   Scattered Clouds
3:53 PM 90.0 °F 91.3 °F 64.0 °F 42% 30.00 in 10.0 mi SW 13.8 mph 21.9 mph N/A   Clear
4:53 PM 90.0 °F 91.3 °F 64.0 °F 42% 30.00 in 10.0 mi SW 12.7 mph - N/A   Partly Cloudy
5:53 PM 89.1 °F 91.0 °F 64.9 °F 45% 29.99 in 10.0 mi SW 11.5 mph - N/A   Clear
6:23 PM 88.0 °F 89.6 °F 64.9 °F 46% 30.03 in 10.0 mi WSW 9.2 mph - N/A   Partly Cloudy
6:53 PM 86.0 °F 87.6 °F 64.9 °F 49% 29.99 in 10.0 mi SW 6.9 mph - N/A   Partly Cloudy
7:53 PM 82.9 °F 85.4 °F 66.9 °F 58% 29.99 in 10.0 mi SSW 4.6 mph - N/A   Clear
8:53 PM 82.0 °F 84.1 °F 66.0 °F 58% 30.01 in 10.0 mi SW 4.6 mph - N/A   Partly Cloudy
9:53 PM 78.1 °F - 68.0 °F 71% 30.04 in 10.0 mi Calm Calm - N/A   Mostly Cloudy
10:53 PM 75.9 °F - 68.0 °F 76% 30.04 in 10.0 mi South 3.5 mph - N/A   Scattered Clouds
11:53 PM 73.9 °F - 68.0 °F 82% 30.03 in 10.0 mi Calm Calm - N/A   Clear